Current weather by "City, St" or "zip code"  
 

Current Conditions: HOLDREGE/BREWSTR

Clear


54.7 F

Last Updated on May 26 2024, 03:15 AM CDT
Humidity: 92%
Wind Speed: 4.7 mph
Barometer 29.59 in
Dewpoint: 52.5 F
Visibility: 10.00 mi
Precip: --
Heat Index: NA
Wind Chill: NA
Current conditions at:

HOLDREGE/BREWSTR (KHDE)

Lat: 40.45 Lon: 99.33

active severe weather and emergency alerts image image weather storm and storm spotter reports image weather observation monitoring service image
Active
Alerts
Storm Reports Obs
Monitoring

Sign-up For Email & Text Message Weather Alert Notification Services



Advertise Here

Observation History for HOLDREGE/BREWSTR


Time Wind
(mph)
Vis
(mi)
Weather Precip (in) Temperature (F) Relative
Humidity
Wind
Chill
(F)
Heat
Index
(F)
Pressure
Air Dwpt altimeter
(in)
sea level
(mb)
Rmks
03:15 AM CDT 4.7 10.00 Clear -- 54.7 52.5 92% NA NA 29.59 1002.0
02:55 AM CDT 0.0 10.00 Clear -- 56.5 53.6 90% NA NA 29.58 1001.7
01:55 AM CDT W 3.4 10.00 Clear -- 59.4 55.2 86% NA NA 29.58 1001.7
01:35 AM CDT 0.0 10.00 Clear -- 61.0 55.8 83% NA NA 29.57 1001.4
12:55 AM CDT SE 4.7 10.00 Clear -- 61.3 56.3 84% NA NA 29.57 1001.4
12:35 AM CDT 9.2 10.00 Clear -- 63.0 55.6 77% NA NA 29.59 1002.0
11:55 PM CDT SE 10.3 10.00 Mostly Cloudy -- 63.9 54.1 71% NA NA 29.56 1001.0
11:35 PM CDT E 4.7 10.00 Mostly Cloudy -- 63.7 54.3 72% NA NA 29.54 1000.3
11:15 PM CDT 6.9 10.00 Clear -- 64.6 52.7 65% NA NA 29.55 1000.7
10:55 PM CDT 11.4 10.00 Clear -- 65.5 53.8 66% NA NA 29.54 1000.3
10:35 PM CDT 5.8 10.00 Thunderstorms -- 64.9 54.7 69% NA NA 29.58 1001.7
09:55 PM CDT 10.00 Thunderstorms -- 67.5 54.9 64% NA NA M
09:35 PM CDT 9.2 10.00 Clear -- 68.0 55.4 64% NA NA 29.57 1001.4
09:15 PM CDT 8.1 10.00 Thunderstorms and Rain -- 68.0 55.2 64% NA NA 29.51 999.3
08:55 PM CDT 4.7 10.00 Clear -- 71.4 52.9 52% NA 70.7 29.53 1000.0
08:35 PM CDT 11.4 10.00 Clear -- 73.0 52.5 49% NA 72.3 29.49 998.7
08:15 PM CDT 15.0 10.00 Clear -- 74.5 51.3 44% NA 73.8 29.52 999.7
07:55 PM CDT SE 16.1 10.00 Clear -- 76.3 50.9 41% NA 75.6 29.53 1000.0
06:55 PM CDT SE 13.9 10.00 Clear -- 77.5 49.6 38% NA 76.8 29.52 999.7
06:15 PM CDT 10.00 Clear -- NULL % NA NA M
05:55 PM CDT 19.7 10.00 Clear and Windy -- 77.0 48.0 36% NA 76.1 29.56 1001.0
05:35 PM CDT 16.1 10.00 Clear -- 77.5 47.3 34% NA 76.6 29.57 1001.4
04:55 PM CDT S 16.1 10.00 Clear -- 77.9 46.4 33% NA 77.0 29.61 1002.7
04:35 PM CDT S 17.2 10.00 Clear -- 78.3 46.0 32% NA 77.4 29.62 1003.1

Regional Weather Observation


HOLDREGE/BREWSTR (KHDE)

Clear
54.7 F

KEARNEY MUNI (KEAR)

Clear
57.0 F

BROKEN BOW MUNI (KBBW)

Mostly Clear
55.0 F

HASTINGS (KHSI)

Clear
57.9 F

MCCOOK (KMCK)

Clear
57.0 F

GRAND ISLAND (KGRI)

Clear
59.0 F

Advertise Here


Advertise Here